Year,Month,Day,Hour,Minute,Value (Times are PST for temperature in C)
2009,06,29,00,00,11.70
2009,06,29,00,01,11.70
2009,06,29,00,02,11.70
2009,06,29,00,03,11.60
2009,06,29,00,04,11.60
2009,06,29,00,05,11.60
2009,06,29,00,06,11.60
2009,06,29,00,07,11.60
2009,06,29,00,08,11.60
2009,06,29,00,09,11.60
2009,06,29,00,10,11.60
2009,06,29,00,11,11.60
2009,06,29,00,12,11.60
2009,06,29,00,13,11.60
2009,06,29,00,14,11.60
2009,06,29,00,15,11.50
2009,06,29,00,16,11.40
2009,06,29,00,17,11.40
2009,06,29,00,18,11.40
2009,06,29,00,19,11.40
2009,06,29,00,20,11.40
2009,06,29,00,21,11.40
2009,06,29,00,22,11.40
2009,06,29,00,23,11.40
2009,06,29,00,24,11.40
2009,06,29,00,25,11.30
2009,06,29,00,26,11.30
2009,06,29,00,27,11.30
2009,06,29,00,28,11.30
2009,06,29,00,29,11.30
2009,06,29,00,30,11.30
2009,06,29,00,31,11.30
2009,06,29,00,32,11.30
2009,06,29,00,33,11.30
2009,06,29,00,34,11.20
2009,06,29,00,35,11.20
2009,06,29,00,36,11.20
2009,06,29,00,37,11.20
2009,06,29,00,38,11.20
2009,06,29,00,39,11.20
2009,06,29,00,40,11.20
2009,06,29,00,41,11.20
2009,06,29,00,42,11.20
2009,06,29,00,43,11.20
2009,06,29,00,44,11.20
2009,06,29,00,45,11.20
2009,06,29,00,46,11.20
2009,06,29,00,47,11.20
2009,06,29,00,48,11.20
2009,06,29,00,49,11.20
2009,06,29,00,50,11.20
2009,06,29,00,51,11.20
2009,06,29,00,52,11.20
2009,06,29,00,53,11.10
2009,06,29,00,54,11.10
2009,06,29,00,55,11.10
2009,06,29,00,56,11.10
2009,06,29,00,57,11.10
2009,06,29,00,58,11.10
2009,06,29,00,59,11.10
2009,06,29,01,00,11.10
2009,06,29,01,01,11.10
2009,06,29,01,02,11.00
2009,06,29,01,03,10.90
2009,06,29,01,04,10.90
2009,06,29,01,05,10.90
2009,06,29,01,06,10.90
2009,06,29,01,07,10.90
2009,06,29,01,08,10.90
2009,06,29,01,09,10.90
2009,06,29,01,10,10.90
2009,06,29,01,11,10.90
2009,06,29,01,12,10.80
2009,06,29,01,13,10.80
2009,06,29,01,14,10.80
2009,06,29,01,15,10.70
2009,06,29,01,16,10.70
2009,06,29,01,17,10.70
2009,06,29,01,18,10.70
2009,06,29,01,19,10.60
2009,06,29,01,20,10.60
2009,06,29,01,21,10.60
2009,06,29,01,22,10.60
2009,06,29,01,23,10.60
2009,06,29,01,24,10.60
2009,06,29,01,25,10.60
2009,06,29,01,26,10.60
2009,06,29,01,27,10.60
2009,06,29,01,28,10.60
2009,06,29,01,29,10.60
2009,06,29,01,30,10.60
2009,06,29,01,31,10.60
2009,06,29,01,32,10.60
2009,06,29,01,33,10.60
2009,06,29,01,34,10.60
2009,06,29,01,35,10.60
2009,06,29,01,36,10.60
2009,06,29,01,37,10.60
2009,06,29,01,38,10.60
2009,06,29,01,39,10.60
2009,06,29,01,40,10.60
2009,06,29,01,41,10.60
2009,06,29,01,42,10.60
2009,06,29,01,43,10.60
2009,06,29,01,44,10.40
2009,06,29,01,45,10.40
2009,06,29,01,46,10.40
2009,06,29,01,47,10.40
2009,06,29,01,48,10.40
2009,06,29,01,49,10.40
2009,06,29,01,50,10.40
2009,06,29,01,51,10.40
2009,06,29,01,52,10.40
2009,06,29,01,53,10.40
2009,06,29,01,54,10.40
2009,06,29,01,55,10.40
2009,06,29,01,56,10.40
2009,06,29,01,57,10.40
2009,06,29,01,58,10.40
2009,06,29,01,59,10.40
2009,06,29,02,00,10.30
2009,06,29,02,01,10.30
2009,06,29,02,02,10.30
2009,06,29,02,03,10.30
2009,06,29,02,04,10.30
2009,06,29,02,05,10.30
2009,06,29,02,06,10.30
2009,06,29,02,07,10.30
2009,06,29,02,08,10.30
2009,06,29,02,09,10.30
2009,06,29,02,10,10.30
2009,06,29,02,11,10.30
2009,06,29,02,12,10.20
2009,06,29,02,13,10.20
2009,06,29,02,14,10.20
2009,06,29,02,15,10.20
2009,06,29,02,16,10.20
2009,06,29,02,17,10.20
2009,06,29,02,18,10.20
2009,06,29,02,19,10.10
2009,06,29,02,20,10.10
2009,06,29,02,21,10.10
2009,06,29,02,22,10.10
2009,06,29,02,23,10.10
2009,06,29,02,24,10.10
2009,06,29,02,25,10.10
2009,06,29,02,26,10.10
2009,06,29,02,27,10.10
2009,06,29,02,28,10.10
2009,06,29,02,29,10.10
2009,06,29,02,30,9.90
2009,06,29,02,31,9.90
2009,06,29,02,32,9.90
2009,06,29,02,33,9.90
2009,06,29,02,34,9.90
2009,06,29,02,35,9.90
2009,06,29,02,36,9.90
2009,06,29,02,37,9.90
2009,06,29,02,38,9.90
2009,06,29,02,39,9.90
2009,06,29,02,40,9.90
2009,06,29,02,41,9.90
2009,06,29,02,42,9.90
2009,06,29,02,43,9.90
2009,06,29,02,44,9.90
2009,06,29,02,45,9.90
2009,06,29,02,46,9.90
2009,06,29,02,47,9.90
2009,06,29,02,48,9.90
2009,06,29,02,49,9.90
2009,06,29,02,50,10.00
2009,06,29,02,51,10.10
2009,06,29,02,52,10.10
2009,06,29,02,53,10.10
2009,06,29,02,54,10.10
2009,06,29,02,55,10.10
2009,06,29,02,56,10.10
2009,06,29,02,57,10.10
2009,06,29,02,58,10.10
2009,06,29,02,59,10.10
2009,06,29,03,00,10.10
2009,06,29,03,01,10.10
2009,06,29,03,02,10.10
2009,06,29,03,03,10.10
2009,06,29,03,04,10.10
2009,06,29,03,05,10.10
2009,06,29,03,06,10.10
2009,06,29,03,07,10.00
2009,06,29,03,08,9.90
2009,06,29,03,09,9.90
2009,06,29,03,10,9.90
2009,06,29,03,11,9.90
2009,06,29,03,12,9.90
2009,06,29,03,13,9.90
2009,06,29,03,14,9.90
2009,06,29,03,15,9.90
2009,06,29,03,16,9.90
2009,06,29,03,17,9.90
2009,06,29,03,18,9.90
2009,06,29,03,19,9.90
2009,06,29,03,20,9.90
2009,06,29,03,21,9.90
2009,06,29,03,22,9.90
2009,06,29,03,23,9.90
2009,06,29,03,24,9.90
2009,06,29,03,25,9.90
2009,06,29,03,26,9.90
2009,06,29,03,27,9.90
2009,06,29,03,28,9.90
2009,06,29,03,29,9.90
2009,06,29,03,30,9.90
2009,06,29,03,31,9.90
2009,06,29,03,32,9.90
2009,06,29,03,33,10.00
2009,06,29,03,34,10.10
2009,06,29,03,35,10.10
2009,06,29,03,36,10.10
2009,06,29,03,37,10.10
2009,06,29,03,38,10.20
2009,06,29,03,39,10.20
2009,06,29,03,40,10.20
2009,06,29,03,41,10.10
2009,06,29,03,42,10.10
2009,06,29,03,43,10.10
2009,06,29,03,44,10.10
2009,06,29,03,45,10.10
2009,06,29,03,46,10.10
2009,06,29,03,47,10.10
2009,06,29,03,48,10.10
2009,06,29,03,49,10.00
2009,06,29,03,50,9.90
2009,06,29,03,51,9.90
2009,06,29,03,52,9.90
2009,06,29,03,53,9.90
2009,06,29,03,54,9.90
2009,06,29,03,55,9.90
2009,06,29,03,56,9.80
2009,06,29,03,57,9.80
2009,06,29,03,58,9.80
2009,06,29,03,59,9.90
2009,06,29,04,00,9.90
2009,06,29,04,01,9.90
2009,06,29,04,02,9.90
2009,06,29,04,03,9.90
2009,06,29,04,04,9.90
2009,06,29,04,05,9.90
2009,06,29,04,06,9.90
2009,06,29,04,07,9.90
2009,06,29,04,08,9.90
2009,06,29,04,09,9.90
2009,06,29,04,10,9.90
2009,06,29,04,11,9.90
2009,06,29,04,12,9.90
2009,06,29,04,13,9.80
2009,06,29,04,14,9.80
2009,06,29,04,15,9.80
2009,06,29,04,16,9.80
2009,06,29,04,17,9.80
2009,06,29,04,18,9.80
2009,06,29,04,19,9.80
2009,06,29,04,20,9.80
2009,06,29,04,21,9.80
2009,06,29,04,22,9.80
2009,06,29,04,23,9.80
2009,06,29,04,24,9.80
2009,06,29,04,25,9.80
2009,06,29,04,26,9.80
2009,06,29,04,27,9.70
2009,06,29,04,28,9.70
2009,06,29,04,29,9.70
2009,06,29,04,30,9.70
2009,06,29,04,31,9.70
2009,06,29,04,32,9.60
2009,06,29,04,33,9.60
2009,06,29,04,34,9.60
2009,06,29,04,35,9.60
2009,06,29,04,36,9.60
2009,06,29,04,37,9.60
2009,06,29,04,38,9.60
2009,06,29,04,39,9.60
2009,06,29,04,40,9.60
2009,06,29,04,41,9.60
2009,06,29,04,42,9.60
2009,06,29,04,43,9.60
2009,06,29,04,44,9.60
2009,06,29,04,45,9.60
2009,06,29,04,46,9.60
2009,06,29,04,47,9.50
2009,06,29,04,48,9.50
2009,06,29,04,49,9.50
2009,06,29,04,50,9.40
2009,06,29,04,51,9.40
2009,06,29,04,52,9.50
2009,06,29,04,53,9.50
2009,06,29,04,54,9.50
2009,06,29,04,55,9.50
2009,06,29,04,56,9.50
2009,06,29,04,57,9.40
2009,06,29,04,58,9.40
2009,06,29,04,59,9.40
2009,06,29,05,00,9.50
2009,06,29,05,01,9.50
2009,06,29,05,02,9.50
2009,06,29,05,03,9.50
2009,06,29,05,04,9.60
2009,06,29,05,05,9.60
2009,06,29,05,06,9.70
2009,06,29,05,07,9.70
2009,06,29,05,08,9.60
2009,06,29,05,09,9.60
2009,06,29,05,10,9.60
2009,06,29,05,11,9.60
2009,06,29,05,12,9.60
2009,06,29,05,13,9.50
2009,06,29,05,14,9.50
2009,06,29,05,15,9.50
2009,06,29,05,16,9.40
2009,06,29,05,17,9.40
2009,06,29,05,18,9.40
2009,06,29,05,19,9.40
2009,06,29,05,20,9.40
2009,06,29,05,21,9.40
2009,06,29,05,22,9.40
2009,06,29,05,23,9.40
2009,06,29,05,24,9.40
2009,06,29,05,25,9.40
2009,06,29,05,26,9.40
2009,06,29,05,27,9.40
2009,06,29,05,28,9.40
2009,06,29,05,29,9.50
2009,06,29,05,30,9.40
2009,06,29,05,31,9.40
2009,06,29,05,32,9.40
2009,06,29,05,33,9.50
2009,06,29,05,34,9.50
2009,06,29,05,35,9.40
2009,06,29,05,36,9.40
2009,06,29,05,37,9.40
2009,06,29,05,38,9.40
2009,06,29,05,39,9.40
2009,06,29,05,40,9.30
2009,06,29,05,41,9.30
2009,06,29,05,42,9.30
2009,06,29,05,43,9.30
2009,06,29,05,44,9.40
2009,06,29,05,45,9.40
2009,06,29,05,46,9.40
2009,06,29,05,47,9.30
2009,06,29,05,48,9.30
2009,06,29,05,49,9.30
2009,06,29,05,50,9.30
2009,06,29,05,51,9.30
2009,06,29,05,52,9.40
2009,06,29,05,53,9.40
2009,06,29,05,54,9.40
2009,06,29,05,55,9.50
2009,06,29,05,56,9.50
2009,06,29,05,57,9.50
2009,06,29,05,58,9.60
2009,06,29,05,59,9.60
2009,06,29,06,00,9.70
2009,06,29,06,01,9.70
2009,06,29,06,02,9.70
2009,06,29,06,03,9.80
2009,06,29,06,04,9.90
2009,06,29,06,05,9.90
2009,06,29,06,06,10.00
2009,06,29,06,07,10.10
2009,06,29,06,08,10.10
2009,06,29,06,09,10.20
2009,06,29,06,10,10.20
2009,06,29,06,11,10.20
2009,06,29,06,12,10.30
2009,06,29,06,13,10.30
2009,06,29,06,14,10.30
2009,06,29,06,15,10.30
2009,06,29,06,16,10.40
2009,06,29,06,17,10.40
2009,06,29,06,18,10.40
2009,06,29,06,19,10.40
2009,06,29,06,20,10.40
2009,06,29,06,21,10.40
2009,06,29,06,22,10.40
2009,06,29,06,23,10.40
2009,06,29,06,24,10.60
2009,06,29,06,25,10.60
2009,06,29,06,26,10.60
2009,06,29,06,27,10.60
2009,06,29,06,28,10.60
2009,06,29,06,29,10.60
2009,06,29,06,30,10.70
2009,06,29,06,31,10.70
2009,06,29,06,32,10.70
2009,06,29,06,33,10.80
2009,06,29,06,34,10.80
2009,06,29,06,35,10.80
2009,06,29,06,36,10.80
2009,06,29,06,37,10.80
2009,06,29,06,38,10.90
2009,06,29,06,39,10.90
2009,06,29,06,40,10.90
2009,06,29,06,41,11.10
2009,06,29,06,42,11.20
2009,06,29,06,43,11.30
2009,06,29,06,44,11.40
2009,06,29,06,45,11.50
2009,06,29,06,46,11.60
2009,06,29,06,47,11.70
2009,06,29,06,48,11.70
2009,06,29,06,49,11.80
2009,06,29,06,50,11.80
2009,06,29,06,51,11.80
2009,06,29,06,52,11.80
2009,06,29,06,53,11.80
2009,06,29,06,54,11.80
2009,06,29,06,55,11.80
2009,06,29,06,56,11.80
2009,06,29,06,57,11.80
2009,06,29,06,58,11.80
2009,06,29,06,59,11.80
2009,06,29,07,00,11.80
2009,06,29,07,01,11.80
2009,06,29,07,02,11.80
2009,06,29,07,03,11.90
2009,06,29,07,04,11.90
2009,06,29,07,05,11.90
2009,06,29,07,06,12.00
2009,06,29,07,07,12.00
2009,06,29,07,08,12.00
2009,06,29,07,09,12.10
2009,06,29,07,10,12.10
2009,06,29,07,11,12.20
2009,06,29,07,12,12.20
2009,06,29,07,13,12.20
2009,06,29,07,14,12.30
2009,06,29,07,15,12.30
2009,06,29,07,16,12.30
2009,06,29,07,17,12.30
2009,06,29,07,18,12.30
2009,06,29,07,19,12.30
2009,06,29,07,20,12.30
2009,06,29,07,21,12.40
2009,06,29,07,22,12.40
2009,06,29,07,23,12.50
2009,06,29,07,24,12.50
2009,06,29,07,25,12.60
2009,06,29,07,26,12.70
2009,06,29,07,27,12.80
2009,06,29,07,28,12.90
2009,06,29,07,29,13.10
2009,06,29,07,30,13.20
2009,06,29,07,31,13.30
2009,06,29,07,32,13.50
2009,06,29,07,33,13.60
2009,06,29,07,34,13.60
2009,06,29,07,35,13.70
2009,06,29,07,36,13.70
2009,06,29,07,37,13.80
2009,06,29,07,38,13.80
2009,06,29,07,39,13.90
2009,06,29,07,40,13.90
2009,06,29,07,41,14.00
2009,06,29,07,42,14.10
2009,06,29,07,43,14.10
2009,06,29,07,44,14.10
2009,06,29,07,45,14.10
2009,06,29,07,46,14.10
2009,06,29,07,47,14.10
2009,06,29,07,48,14.10
2009,06,29,07,49,14.10
2009,06,29,07,50,14.10
2009,06,29,07,51,14.10
2009,06,29,07,52,14.10
2009,06,29,07,53,14.10
2009,06,29,07,54,14.10
2009,06,29,07,55,14.20
2009,06,29,07,56,14.20
2009,06,29,07,57,14.20
2009,06,29,07,58,14.30
2009,06,29,07,59,14.40
2009,06,29,08,00,14.40
2009,06,29,08,01,14.50
2009,06,29,08,02,14.50
2009,06,29,08,03,14.60
2009,06,29,08,04,14.60
2009,06,29,08,05,14.60
2009,06,29,08,06,14.60
2009,06,29,08,07,14.60
2009,06,29,08,08,14.60
2009,06,29,08,09,14.60
2009,06,29,08,10,14.60
2009,06,29,08,11,14.50
2009,06,29,08,12,14.50
2009,06,29,08,13,14.50
2009,06,29,08,14,14.50
2009,06,29,08,15,14.40
2009,06,29,08,16,14.40
2009,06,29,08,17,14.40
2009,06,29,08,18,14.40
2009,06,29,08,19,14.40
2009,06,29,08,20,14.50
2009,06,29,08,21,14.50
2009,06,29,08,22,14.50
2009,06,29,08,23,14.50
2009,06,29,08,24,14.50
2009,06,29,08,25,14.50
2009,06,29,08,26,14.50
2009,06,29,08,27,14.60
2009,06,29,08,28,14.60
2009,06,29,08,29,14.60
2009,06,29,08,30,14.60
2009,06,29,08,31,14.60
2009,06,29,08,32,14.60
2009,06,29,08,33,14.50
2009,06,29,08,34,14.50
2009,06,29,08,35,14.60
2009,06,29,08,36,14.60
2009,06,29,08,37,14.60
2009,06,29,08,38,14.70
2009,06,29,08,39,14.80
2009,06,29,08,40,14.80
2009,06,29,08,41,14.80
2009,06,29,08,42,14.80
2009,06,29,08,43,14.80
2009,06,29,08,44,14.80
2009,06,29,08,45,14.80
2009,06,29,08,46,14.70
2009,06,29,08,47,14.70
2009,06,29,08,48,14.70
2009,06,29,08,49,14.70
2009,06,29,08,50,14.70
2009,06,29,08,51,14.70
2009,06,29,08,52,14.80
2009,06,29,08,53,14.80
2009,06,29,08,54,14.80
2009,06,29,08,55,14.80
2009,06,29,08,56,14.80
2009,06,29,08,57,14.80
2009,06,29,08,58,14.80
2009,06,29,08,59,14.80
2009,06,29,09,00,14.80
2009,06,29,09,01,14.80
2009,06,29,09,02,14.90
2009,06,29,09,03,14.90
2009,06,29,09,04,14.90
2009,06,29,09,05,15.00
2009,06,29,09,06,15.00
2009,06,29,09,07,15.00
2009,06,29,09,08,15.00
2009,06,29,09,09,15.10
2009,06,29,09,10,15.10
2009,06,29,09,11,15.10
2009,06,29,09,12,15.10
2009,06,29,09,13,15.00
2009,06,29,09,14,15.10
2009,06,29,09,15,15.10
2009,06,29,09,16,15.10
2009,06,29,09,17,15.10
2009,06,29,09,18,15.00
2009,06,29,09,19,14.90
2009,06,29,09,20,14.90
2009,06,29,09,21,15.00
2009,06,29,09,22,15.00
2009,06,29,09,23,15.00
2009,06,29,09,24,15.00
2009,06,29,09,25,15.10
2009,06,29,09,26,15.20
2009,06,29,09,27,15.30
2009,06,29,09,28,15.30
2009,06,29,09,29,15.40
2009,06,29,09,30,15.40
2009,06,29,09,31,15.50
2009,06,29,09,32,15.50
2009,06,29,09,33,15.60
2009,06,29,09,34,15.60
2009,06,29,09,35,15.50
2009,06,29,09,36,15.40
2009,06,29,09,37,15.30
2009,06,29,09,38,15.30
2009,06,29,09,39,15.30
2009,06,29,09,40,15.30
2009,06,29,09,41,15.40
2009,06,29,09,42,15.40
2009,06,29,09,43,15.50
2009,06,29,09,44,15.50
2009,06,29,09,45,15.50
2009,06,29,09,46,15.50
2009,06,29,09,47,15.40
2009,06,29,09,48,15.30
2009,06,29,09,49,15.30
2009,06,29,09,50,15.30
2009,06,29,09,51,15.30
2009,06,29,09,52,15.30
2009,06,29,09,53,15.30
2009,06,29,09,54,15.30
2009,06,29,09,55,15.30
2009,06,29,09,56,15.30
2009,06,29,09,57,15.20
2009,06,29,09,58,15.10
2009,06,29,09,59,15.10
2009,06,29,10,00,15.20
2009,06,29,10,01,15.10
2009,06,29,10,02,15.00
2009,06,29,10,03,15.00
2009,06,29,10,04,14.90
2009,06,29,10,05,14.90
2009,06,29,10,06,14.90
2009,06,29,10,07,14.80
2009,06,29,10,08,14.80
2009,06,29,10,09,14.90
2009,06,29,10,10,14.90
2009,06,29,10,11,14.90
2009,06,29,10,12,15.00
2009,06,29,10,13,15.00
2009,06,29,10,14,15.10
2009,06,29,10,15,15.20
2009,06,29,10,16,15.20
2009,06,29,10,17,15.20
2009,06,29,10,18,15.30
2009,06,29,10,19,15.30
2009,06,29,10,20,15.30
2009,06,29,10,21,15.30
2009,06,29,10,22,15.10
2009,06,29,10,23,15.00
2009,06,29,10,24,14.90
2009,06,29,10,25,15.00
2009,06,29,10,26,15.00
2009,06,29,10,27,15.10
2009,06,29,10,28,15.00
2009,06,29,10,29,15.10
2009,06,29,10,30,15.10
2009,06,29,10,31,15.20
2009,06,29,10,32,15.30
2009,06,29,10,33,15.30
2009,06,29,10,34,15.50
2009,06,29,10,35,15.50
2009,06,29,10,36,15.60
2009,06,29,10,37,15.70
2009,06,29,10,38,15.80
2009,06,29,10,39,15.80
2009,06,29,10,40,15.80
2009,06,29,10,41,15.80
2009,06,29,10,42,15.80
2009,06,29,10,43,15.80
2009,06,29,10,44,15.80
2009,06,29,10,45,15.80
2009,06,29,10,46,15.80
2009,06,29,10,47,15.80
2009,06,29,10,48,15.80
2009,06,29,10,49,15.70
2009,06,29,10,50,15.70
2009,06,29,10,51,15.70
2009,06,29,10,52,15.60
2009,06,29,10,53,15.60
2009,06,29,10,54,15.60
2009,06,29,10,55,15.60
2009,06,29,10,56,15.60
2009,06,29,10,57,15.60
2009,06,29,10,58,15.70
2009,06,29,10,59,15.70
2009,06,29,11,00,15.80
2009,06,29,11,01,15.80
2009,06,29,11,02,15.90
2009,06,29,11,03,15.90
2009,06,29,11,04,15.90
2009,06,29,11,05,15.90
2009,06,29,11,06,15.90
2009,06,29,11,07,16.00
2009,06,29,11,08,16.10
2009,06,29,11,09,16.20
2009,06,29,11,10,16.30
2009,06,29,11,11,16.30
2009,06,29,11,12,16.30
2009,06,29,11,13,16.30
2009,06,29,11,14,16.40
2009,06,29,11,15,16.40
2009,06,29,11,16,16.40
2009,06,29,11,17,16.50
2009,06,29,11,18,16.60
2009,06,29,11,19,16.70
2009,06,29,11,20,16.60
2009,06,29,11,21,16.50
2009,06,29,11,22,16.40
2009,06,29,11,23,16.40
2009,06,29,11,24,16.60
2009,06,29,11,25,16.70
2009,06,29,11,26,16.80
2009,06,29,11,27,16.80
2009,06,29,11,28,16.70
2009,06,29,11,29,16.60
2009,06,29,11,30,16.40
2009,06,29,11,31,16.40
2009,06,29,11,32,16.40
2009,06,29,11,33,16.40
2009,06,29,11,34,16.60
2009,06,29,11,35,16.60
2009,06,29,11,36,16.60
2009,06,29,11,37,16.70
2009,06,29,11,38,16.70
2009,06,29,11,39,16.70
2009,06,29,11,40,16.70
2009,06,29,11,41,16.80
2009,06,29,11,42,16.90
2009,06,29,11,43,16.90
2009,06,29,11,44,16.90
2009,06,29,11,45,17.00
2009,06,29,11,46,17.00
2009,06,29,11,47,16.90
2009,06,29,11,48,16.90
2009,06,29,11,49,16.90
2009,06,29,11,50,17.00
2009,06,29,11,51,16.90
2009,06,29,11,52,16.90
2009,06,29,11,53,16.70
2009,06,29,11,54,16.70
2009,06,29,11,55,16.70
2009,06,29,11,56,16.60
2009,06,29,11,57,16.60
2009,06,29,11,58,16.40
2009,06,29,11,59,16.40
2009,06,29,12,00,16.30
2009,06,29,12,01,16.30
2009,06,29,12,02,16.30
2009,06,29,12,03,16.40
2009,06,29,12,04,16.40
2009,06,29,12,05,16.50
2009,06,29,12,06,16.60
2009,06,29,12,07,16.70
2009,06,29,12,08,16.60
2009,06,29,12,09,16.60
2009,06,29,12,10,16.60
2009,06,29,12,11,16.40
2009,06,29,12,12,16.40
2009,06,29,12,13,16.40
2009,06,29,12,14,16.40
2009,06,29,12,15,16.40
2009,06,29,12,16,16.30
2009,06,29,12,17,16.30
2009,06,29,12,18,16.30
2009,06,29,12,19,16.40
2009,06,29,12,20,16.40
2009,06,29,12,21,16.50
2009,06,29,12,22,16.60
2009,06,29,12,23,16.60
2009,06,29,12,24,16.60
2009,06,29,12,25,16.60
2009,06,29,12,26,16.60
2009,06,29,12,27,16.80
2009,06,29,12,28,16.90
2009,06,29,12,29,17.00
2009,06,29,12,30,17.10
2009,06,29,12,31,17.20
2009,06,29,12,32,17.30
2009,06,29,12,33,17.30
2009,06,29,12,34,17.20
2009,06,29,12,35,17.20
2009,06,29,12,36,17.20
2009,06,29,12,37,17.30
2009,06,29,12,38,17.30
2009,06,29,12,39,17.20
2009,06,29,12,40,17.20
2009,06,29,12,41,17.20
2009,06,29,12,42,17.20
2009,06,29,12,43,17.30
2009,06,29,12,44,17.30
2009,06,29,12,45,17.30
2009,06,29,12,46,17.30
2009,06,29,12,47,17.30
2009,06,29,12,48,17.30
2009,06,29,12,49,17.30
2009,06,29,12,50,17.40
2009,06,29,12,51,17.50
2009,06,29,12,52,17.50
2009,06,29,12,53,17.40
2009,06,29,12,54,17.30
2009,06,29,12,55,17.30
2009,06,29,12,56,17.30
2009,06,29,12,57,17.30
2009,06,29,12,58,17.40
2009,06,29,12,59,17.40
2009,06,29,13,00,17.40
2009,06,29,13,01,17.40
2009,06,29,13,02,17.40
2009,06,29,13,03,17.40
2009,06,29,13,04,17.40
2009,06,29,13,05,17.30
2009,06,29,13,06,17.30
2009,06,29,13,07,17.30
2009,06,29,13,08,17.30
2009,06,29,13,09,17.30
2009,06,29,13,10,17.30
2009,06,29,13,11,17.30
2009,06,29,13,12,17.30
2009,06,29,13,13,17.30
2009,06,29,13,14,17.30
2009,06,29,13,15,17.30
2009,06,29,13,16,17.30
2009,06,29,13,17,17.50
2009,06,29,13,18,17.60
2009,06,29,13,19,17.60
2009,06,29,13,20,17.50
2009,06,29,13,21,17.50
2009,06,29,13,22,17.50
2009,06,29,13,23,17.50
2009,06,29,13,24,17.50
2009,06,29,13,25,17.50
2009,06,29,13,26,17.50
2009,06,29,13,27,17.50
2009,06,29,13,28,17.50
2009,06,29,13,29,17.50
2009,06,29,13,30,17.40
2009,06,29,13,31,17.50
2009,06,29,13,32,17.60
2009,06,29,13,33,17.80
2009,06,29,13,34,17.80
2009,06,29,13,35,17.70
2009,06,29,13,36,17.70
2009,06,29,13,37,17.70
2009,06,29,13,38,17.70
2009,06,29,13,39,17.60
2009,06,29,13,40,17.50
2009,06,29,13,41,17.50
2009,06,29,13,42,17.50
2009,06,29,13,43,17.60
2009,06,29,13,44,17.60
2009,06,29,13,45,17.60
2009,06,29,13,46,17.50
2009,06,29,13,47,17.60
2009,06,29,13,48,17.70
2009,06,29,13,49,17.90
2009,06,29,13,50,17.80
2009,06,29,13,51,17.70
2009,06,29,13,52,17.70
2009,06,29,13,53,17.70
2009,06,29,13,54,17.70
2009,06,29,13,55,17.70
2009,06,29,13,56,17.60
2009,06,29,13,57,17.50
2009,06,29,13,58,17.50
2009,06,29,13,59,17.50
2009,06,29,14,00,17.40
2009,06,29,14,01,17.50
2009,06,29,14,02,17.60
2009,06,29,14,03,17.60
2009,06,29,14,04,17.60
2009,06,29,14,05,17.70
2009,06,29,14,06,17.80
2009,06,29,14,07,17.90
2009,06,29,14,08,17.90
2009,06,29,14,09,17.80
2009,06,29,14,10,17.70
2009,06,29,14,11,17.60
2009,06,29,14,12,17.50
2009,06,29,14,13,17.50
2009,06,29,14,14,17.60
2009,06,29,14,15,17.80
2009,06,29,14,16,17.80
2009,06,29,14,17,17.70
2009,06,29,14,18,17.70
2009,06,29,14,19,17.70
2009,06,29,14,20,17.60
2009,06,29,14,21,17.60
2009,06,29,14,22,17.60
2009,06,29,14,23,17.60
2009,06,29,14,24,17.50
2009,06,29,14,25,17.60
2009,06,29,14,26,17.50
2009,06,29,14,27,17.50
2009,06,29,14,28,17.50
2009,06,29,14,29,17.40
2009,06,29,14,30,17.40
2009,06,29,14,31,17.30
2009,06,29,14,32,17.30
2009,06,29,14,33,17.40
2009,06,29,14,34,17.60
2009,06,29,14,35,17.90
2009,06,29,14,36,18.00
2009,06,29,14,37,18.10
2009,06,29,14,38,18.10
2009,06,29,14,39,18.00
2009,06,29,14,40,17.80
2009,06,29,14,41,17.60
2009,06,29,14,42,17.50
2009,06,29,14,43,17.60
2009,06,29,14,44,17.70
2009,06,29,14,45,17.70
2009,06,29,14,46,17.70
2009,06,29,14,47,17.70
2009,06,29,14,48,17.70
2009,06,29,14,49,17.70
2009,06,29,14,50,17.60
2009,06,29,14,51,17.60
2009,06,29,14,52,17.70
2009,06,29,14,53,17.80
2009,06,29,14,54,17.80
2009,06,29,14,55,17.80
2009,06,29,14,56,17.80
2009,06,29,14,57,17.70
2009,06,29,14,58,17.70
2009,06,29,14,59,17.70
2009,06,29,15,00,17.80
2009,06,29,15,01,17.90
2009,06,29,15,02,17.90
2009,06,29,15,03,17.90
2009,06,29,15,04,17.90
2009,06,29,15,05,17.90
2009,06,29,15,06,18.00
2009,06,29,15,07,17.90
2009,06,29,15,08,17.90
2009,06,29,15,09,17.90
2009,06,29,15,10,17.90
2009,06,29,15,11,17.90
2009,06,29,15,12,18.00
2009,06,29,15,13,18.20
2009,06,29,15,14,18.20
2009,06,29,15,15,18.10
2009,06,29,15,16,17.90
2009,06,29,15,17,17.90
2009,06,29,15,18,17.90
2009,06,29,15,19,18.10
2009,06,29,15,20,18.20
2009,06,29,15,21,18.20
2009,06,29,15,22,18.20
2009,06,29,15,23,18.10
2009,06,29,15,24,18.00
2009,06,29,15,25,17.80
2009,06,29,15,26,17.80
2009,06,29,15,27,17.80
2009,06,29,15,28,17.90
2009,06,29,15,29,17.90
2009,06,29,15,30,17.90
2009,06,29,15,31,17.90
2009,06,29,15,32,17.90
2009,06,29,15,33,17.90
2009,06,29,15,34,17.90
2009,06,29,15,35,17.90
2009,06,29,15,36,17.90
2009,06,29,15,37,18.00
2009,06,29,15,38,18.10
2009,06,29,15,39,18.20
2009,06,29,15,40,18.30
2009,06,29,15,41,18.40
2009,06,29,15,42,18.50
2009,06,29,15,43,18.60
2009,06,29,15,44,18.60
2009,06,29,15,45,18.60
2009,06,29,15,46,18.60
2009,06,29,15,47,18.60
2009,06,29,15,48,18.50
2009,06,29,15,49,18.40
2009,06,29,15,50,18.30
2009,06,29,15,51,18.20
2009,06,29,15,52,18.20
2009,06,29,15,53,18.30
2009,06,29,15,54,18.30
2009,06,29,15,55,18.20
2009,06,29,15,56,18.20
2009,06,29,15,57,18.20
2009,06,29,15,58,18.20
2009,06,29,15,59,18.10
2009,06,29,16,00,17.90
2009,06,29,16,01,17.90
2009,06,29,16,02,17.90
2009,06,29,16,03,17.90
2009,06,29,16,04,17.90
2009,06,29,16,05,17.90
2009,06,29,16,06,17.80
2009,06,29,16,07,17.80
2009,06,29,16,08,17.90
2009,06,29,16,09,17.90
2009,06,29,16,10,18.00
2009,06,29,16,11,18.10
2009,06,29,16,12,18.10
2009,06,29,16,13,18.00
2009,06,29,16,14,17.90
2009,06,29,16,15,17.90
2009,06,29,16,16,17.90
2009,06,29,16,17,17.90
2009,06,29,16,18,17.90
2009,06,29,16,19,18.00
2009,06,29,16,20,18.10
2009,06,29,16,21,17.90
2009,06,29,16,22,17.90
2009,06,29,16,23,17.90
2009,06,29,16,24,18.10
2009,06,29,16,25,18.10
2009,06,29,16,26,18.20
2009,06,29,16,27,18.20
2009,06,29,16,28,18.30
2009,06,29,16,29,18.30
2009,06,29,16,30,18.30
2009,06,29,16,31,18.30
2009,06,29,16,32,18.40
2009,06,29,16,33,18.40
2009,06,29,16,34,18.40
2009,06,29,16,35,18.30
2009,06,29,16,36,18.20
2009,06,29,16,37,18.20
2009,06,29,16,38,18.20
2009,06,29,16,39,18.20
2009,06,29,16,40,18.20
2009,06,29,16,41,18.10
2009,06,29,16,42,17.90
2009,06,29,16,43,17.80
2009,06,29,16,44,17.80
2009,06,29,16,45,17.80
2009,06,29,16,46,17.90
2009,06,29,16,47,17.90
2009,06,29,16,48,17.90
2009,06,29,16,49,17.90
2009,06,29,16,50,17.90
2009,06,29,16,51,17.90
2009,06,29,16,52,17.80
2009,06,29,16,53,17.90
2009,06,29,16,54,17.90
2009,06,29,16,55,17.80
2009,06,29,16,56,17.80
2009,06,29,16,57,17.70
2009,06,29,16,58,17.70
2009,06,29,16,59,17.70
2009,06,29,17,00,17.70
2009,06,29,17,01,17.80
2009,06,29,17,02,17.90
2009,06,29,17,03,17.90
2009,06,29,17,04,17.90
2009,06,29,17,05,17.90
2009,06,29,17,06,18.00
2009,06,29,17,07,18.10
2009,06,29,17,08,18.10
2009,06,29,17,09,18.20
2009,06,29,17,10,18.20
2009,06,29,17,11,18.10
2009,06,29,17,12,18.10
2009,06,29,17,13,17.90
2009,06,29,17,14,18.00
2009,06,29,17,15,18.10
2009,06,29,17,16,18.10
2009,06,29,17,17,18.10
2009,06,29,17,18,18.10
2009,06,29,17,19,18.10
2009,06,29,17,20,18.20
2009,06,29,17,21,18.30
2009,06,29,17,22,18.40
2009,06,29,17,23,18.40
2009,06,29,17,24,18.50
2009,06,29,17,25,18.60
2009,06,29,17,26,18.70
2009,06,29,17,27,18.80